{"data":{"norad_id":67345,"intl_designator":"2026-003M","name":"STARLINK-35676","alt_names":[],"object_type":"PAYLOAD","status":"ACTIVE","operator":null,"country":"US","launch_date":"2026-01-09","launch_site_code":"AFETR","launch_vehicle":null,"mission":null,"orbit_class":"UNKNOWN","rcs_meters":null,"size_class":null,"mass_kg":null,"dimensions":null,"purposes":["comms"],"wikipedia_slug":null,"has_3d_model":false,"image_url":null,"decayed_at":null,"tle_current":{"epoch":"2026-09-19T06:47:15.449280Z","epoch_age_seconds":180562,"freshness":"STALE","line1":"1 67345U 26003M   26262.28281770  .00007684  00000+0  28841-3 0  9999","line2":"2 67345  42.9993 213.5653 0001357 269.7761  90.2935 15.27586862 38438","mean_motion":15.27586862,"eccentricity":0.0001357,"inclination_deg":42.9993,"raan_deg":213.5653,"arg_perigee_deg":269.7761,"mean_anomaly_deg":90.2935,"bstar":0.00028841,"rev_number":3843,"period_min":94.266325262491,"perigee_km":482.097488655,"apogee_km":483.95960898495,"semimajor_km":6861.16554882,"source":"CELESTRAK","updated_at":"2026-09-20T09:00:43.513345Z"}}}